Ketchikan, AK

2:41 AM AKST on January 21, 2019 (GMT -0900)
Ketchikan International

Weather History for PAKT - December, 2018

Change the Weather History Date:

Sunday, December 16, 2018

  Actual Average Record
Temperature  
Mean Temperature 42 °F -  
Max Temperature 44 °F 40 °F 52 °F (1953)
Min Temperature 39 °F 31 °F 3 °F (1964)
Degree Days  
Heating Degree Days 24    
Moisture  
Dew Point 38 °F    
Average Humidity 84    
Maximum Humidity 93    
Minimum Humidity 76    
Precipitation  
Precipitation 0.92 in - - ()
Sea Level Pressure  
Sea Level Pressure 29.21 in    
Wind  
Wind Speed 18 mph (SE)    
Max Wind Speed 28 mph    
Max Gust Speed 40 mph    
Visibility 8 miles    
Events Rain    
Averages and records for this station are not official NWS values.
T = Trace of Precipitation, MM = Missing Value Source: NWS Daily Summary

Daily Weather History Graph

Daily Weather History Graph

Search for Another Location

Airport or City:

Astronomy

Dec. 16, 2018 Rise Set
Actual Time 8:08 AM AKST 3:16 PM AKST
Civil Twilight 7:22 AM AKST 4:02 PM AKST
Nautical Twilight 6:34 AM AKST 4:50 PM AKST
Astronomical Twilight 5:49 AM AKST 5:35 PM AKST
Moon 12:55 PM AKST (12/16) 12:13 AM AKST (12/16)
Length of Visible Light 8h 39m
Length of Day
7h 07m
Waxing Gibbous, 64% of the Moon is Illuminated
Dec 16
Waxing Gibbous
Dec 22
Full
Dec 29
Last Quarter
Jan 5
New
Jan 13
First Quarter

Hourly Weather History & Observations

Time (AKST) Temp. Windchill Dew Point Humidity Pressure Visibility Wind Dir Wind Speed Gust Speed Precip Events Conditions
12:53 AM 39.9 °F 31.1 °F 36.0 °F 86% 29.19 in 6.0 mi SE 17.3 mph 28.8 mph 0.04 in Rain Light Rain
1:02 AM 39.9 °F 30.0 °F 36.0 °F 86% 29.18 in 6.0 mi SE 21.9 mph 29.9 mph 0.00 in Rain Light Rain
1:53 AM 39.9 °F 29.7 °F 36.0 °F 86% 29.18 in 7.0 mi SE 23.0 mph 32.2 mph 0.01 in Rain Light Rain
2:53 AM 42.1 °F 32.3 °F 36.0 °F 79% 29.18 in 10.0 mi SSE 24.2 mph 40.3 mph 0.00 in Rain Light Rain
3:53 AM 41.0 °F 32.5 °F 36.0 °F 82% 29.18 in 10.0 mi SSE 17.3 mph 27.6 mph 0.01 in Rain Light Rain
4:53 AM 39.9 °F 30.8 °F 36.0 °F 86% 29.19 in 6.0 mi SSE 18.4 mph 29.9 mph 0.01 in Rain Light Rain
5:53 AM 41.0 °F 32.5 °F 37.0 °F 86% 29.19 in 10.0 mi SSE 17.3 mph 27.6 mph 0.01 in Rain Light Rain
6:06 AM 41.0 °F 32.5 °F 37.0 °F 86% 29.18 in 9.0 mi SSE 17.3 mph 26.5 mph 0.00 in Rain Light Rain
6:53 AM 41.0 °F 34.3 °F 37.0 °F 86% 29.18 in 10.0 mi SSE 11.5 mph 23.0 mph 0.01 in Rain Light Rain
7:53 AM 43.0 °F 35.1 °F 37.9 °F 82% 29.18 in 10.0 mi SSE 17.3 mph 23.0 mph 0.00 in   Overcast
9:53 AM 44.6 °F 37.2 °F 37.4 °F 76% 29.20 in 10.0 mi SSE 17.3 mph 28.8 mph N/A   Overcast
10:53 AM 42.8 °F 35.4 °F 37.4 °F 81% 29.19 in 10.0 mi SSE 15.0 mph 26.5 mph N/A Rain Light Rain
11:53 AM 44.6 °F 37.4 °F 37.4 °F 76% 29.18 in 8.0 mi SSE 16.1 mph 28.8 mph N/A Rain Light Rain
12:53 PM 44.6 °F 35.7 °F 39.2 °F 81% 29.19 in 10.0 mi SE 24.2 mph 36.8 mph N/A   Overcast
1:53 PM 44.6 °F 35.1 °F 37.4 °F 76% 29.19 in 8.0 mi SE 27.6 mph 36.8 mph N/A Rain Light Rain
2:53 PM 44.6 °F 37.8 °F 39.2 °F 81% 29.20 in 3.0 mi SSE 15.0 mph 29.9 mph N/A Rain Rain
3:53 PM 44.6 °F 36.4 °F 39.2 °F 81% 29.22 in 9.0 mi SE 20.7 mph 28.8 mph N/A Rain Light Rain
4:53 PM 43.0 °F 36.4 °F 39.9 °F 89% 29.24 in 7.0 mi SSE 12.7 mph 21.9 mph 0.12 in Rain Light Rain
5:53 PM 44.1 °F 37.4 °F 41.0 °F 89% 29.24 in 7.0 mi SSE 13.8 mph 26.5 mph 0.08 in Rain Light Rain
6:53 PM 44.1 °F 38.1 °F 41.0 °F 89% 29.24 in 10.0 mi SSE 11.5 mph 21.9 mph 0.10 in Rain Light Rain
7:53 PM 44.1 °F 35.4 °F 41.0 °F 89% 29.25 in 10.0 mi SE 21.9 mph 31.1 mph 0.05 in Rain Light Rain
8:53 PM 44.1 °F 36.5 °F 39.9 °F 85% 29.25 in 10.0 mi SE 17.3 mph 25.3 mph 0.06 in Rain Light Rain
9:53 PM 44.1 °F 35.7 °F 39.9 °F 85% 29.25 in 9.0 mi SE 20.7 mph 33.4 mph 0.05 in Rain Light Rain
10:53 PM 44.1 °F 35.9 °F 39.9 °F 85% 29.24 in 6.0 mi SE 19.6 mph 29.9 mph 0.05 in Rain Light Rain
11:10 PM 43.0 °F 36.0 °F 41.0 °F 93% 29.26 in 2.5 mi SSE 13.8 mph - 0.09 in Rain Rain
11:53 PM 44.1 °F 38.1 °F 42.1 °F 93% 29.28 in 2.5 mi SE 11.5 mph - 0.32 in Rain Rain